TimeCST,TemperatureF,Dew PointF,Humidity,Sea Level PressureIn,VisibilityMPH,Wind Direction,Wind SpeedMPH,Gust SpeedMPH,PrecipitationIn,Events,Conditions,WindDirDegrees,DateUTC
12:18 AM,33.8,32.0,93,29.41,1.0,WNW,15.0,21.9,0.01,Snow,Light Snow,290,2013-02-19 06:18:00
12:39 AM,32.0,32.0,100,29.41,0.8,WNW,13.8,24.2,0.01,Snow,Light Snow,290,2013-02-19 06:39:00
12:53 AM,32.0,30.9,96,29.44,1.0,West,19.6,24.2,0.02,Snow,Light Snow,280,2013-02-19 06:53:00
1:17 AM,30.2,28.4,93,29.42,1.5,West,26.5,32.2,0.00,Snow,Light Snow,280,2013-02-19 07:17:00
1:23 AM,28.4,28.4,100,29.42,2.0,West,23.0,32.2,0.00,Snow,Light Snow,280,2013-02-19 07:23:00
1:32 AM,28.4,26.6,93,29.42,5.0,West,18.4,28.8,0.00,Snow,Light Snow,280,2013-02-19 07:32:00
1:48 AM,28.4,26.6,93,29.43,1.8,West,19.6,31.1,0.00,Snow,Light Snow,280,2013-02-19 07:48:00
1:49 AM,28.0,26.1,92,29.46,1.8,WNW,19.6,31.1,0.00,Snow,Light Snow,290,2013-02-19 07:49:00
1:57 AM,26.6,24.8,93,29.43,2.5,West,18.4,29.9,0.00,Snow,Light Snow,280,2013-02-19 07:57:00
2:23 AM,26.6,23.0,86,29.45,7.0,West,23.0,31.1,0.00,,Overcast,280,2013-02-19 08:23:00
2:33 AM,24.8,23.0,93,29.45,7.0,West,23.0,28.8,0.00,Snow,Light Snow,280,2013-02-19 08:33:00
2:53 AM,25.0,21.0,85,29.48,5.0,West,20.7,32.2,0.00,Snow,Light Snow,280,2013-02-19 08:53:00
3:53 AM,23.0,19.9,88,29.51,10.0,West,20.7,29.9,0.00,,Overcast,280,2013-02-19 09:53:00
4:53 AM,21.9,19.0,89,29.53,7.0,West,23.0,34.5,0.00,,Overcast,270,2013-02-19 10:53:00
5:11 AM,21.2,17.6,86,29.51,9.0,West,18.4,32.2,N/A,,Overcast,270,2013-02-19 11:11:00
5:53 AM,21.0,17.1,85,29.55,6.0,West,20.7,32.2,0.00,,Overcast,280,2013-02-19 11:53:00
6:53 AM,19.0,15.1,85,29.57,2.5,WNW,20.7,36.8,0.00,Snow,Light Snow,290,2013-02-19 12:53:00
7:08 AM,19.4,15.8,86,29.56,1.8,West,23.0,34.5,0.00,Snow,Light Snow,280,2013-02-19 13:08:00
7:19 AM,19.4,14.0,80,29.57,2.5,West,20.7,32.2,0.00,Snow,Light Snow,280,2013-02-19 13:19:00
7:32 AM,17.6,14.0,86,29.57,1.8,West,23.0,38.0,0.00,Snow,Light Snow,280,2013-02-19 13:32:00
7:53 AM,18.0,14.0,84,29.62,1.2,West,21.9,28.8,0.00,Snow,Light Snow,280,2013-02-19 13:53:00
8:06 AM,17.6,14.0,86,29.59,1.0,West,19.6,33.4,0.00,Snow,Light Snow,280,2013-02-19 14:06:00
8:14 AM,17.6,12.2,79,29.60,0.8,WNW,21.9,33.4,0.00,Snow,Light Snow,290,2013-02-19 14:14:00
8:38 AM,15.8,12.2,86,29.61,1.0,WNW,24.2,36.8,0.00,Snow,Light Snow,290,2013-02-19 14:38:00
8:53 AM,16.0,12.0,84,29.65,1.2,WNW,23.0,34.5,0.00,Snow,Light Snow,290,2013-02-19 14:53:00
9:53 AM,15.1,10.0,80,29.69,1.5,WNW,21.9,32.2,0.00,Snow,Light Snow,290,2013-02-19 15:53:00
10:03 AM,15.8,10.4,79,29.66,2.0,WNW,19.6,33.4,0.00,Snow,Light Snow,290,2013-02-19 16:03:00
10:24 AM,15.8,10.4,79,29.67,1.5,WNW,18.4,34.5,0.00,Snow,Light Snow,290,2013-02-19 16:24:00
10:53 AM,14.0,9.0,80,29.73,2.0,WNW,21.9,31.1,0.00,Snow,Light Snow,290,2013-02-19 16:53:00
11:44 AM,14.0,8.6,79,29.71,3.0,WNW,17.3,34.5,0.00,,Haze,290,2013-02-19 17:44:00
12:15 PM,12.2,6.8,79,29.74,7.0,West,25.3,35.7,0.00,,Overcast,280,2013-02-19 18:15:00
12:46 PM,12.2,6.8,79,29.76,5.0,West,18.4,32.2,0.00,Snow,Light Snow,280,2013-02-19 18:46:00
12:53 PM,12.0,6.1,77,29.80,5.0,WNW,26.5,36.8,0.00,Snow,Light Snow,290,2013-02-19 18:53:00
1:26 PM,12.2,5.0,73,29.78,2.0,WNW,25.3,34.5,0.00,Snow,Light Snow,290,2013-02-19 19:26:00
1:53 PM,10.9,5.0,77,29.84,1.5,West,20.7,33.4,0.00,Snow,Light Snow,280,2013-02-19 19:53:00
2:14 PM,10.4,3.2,73,29.81,0.8,WNW,25.3,35.7,0.00,Snow,Light Snow,300,2013-02-19 20:14:00
2:24 PM,10.4,3.2,73,29.82,1.5,WNW,21.9,33.4,0.00,Snow,Light Snow,290,2013-02-19 20:24:00
2:38 PM,10.4,3.2,73,29.82,2.5,WNW,21.9,35.7,0.00,Snow,Light Snow,290,2013-02-19 20:38:00
2:45 PM,10.4,3.2,73,29.83,3.0,West,18.4,29.9,0.00,Snow,Light Snow,280,2013-02-19 20:45:00
2:53 PM,10.0,3.0,73,29.88,2.0,WNW,21.9,36.8,0.00,Snow,Light Snow,290,2013-02-19 20:53:00
3:10 PM,10.4,3.2,73,29.85,3.0,WNW,20.7,33.4,0.00,Snow,Light Snow,290,2013-02-19 21:10:00
3:29 PM,10.4,3.2,73,29.86,2.5,WNW,23.0,31.1,0.00,Snow,Light Snow,290,2013-02-19 21:29:00
3:39 PM,10.4,3.2,73,29.86,4.0,WNW,21.9,31.1,0.00,,Haze,290,2013-02-19 21:39:00
3:53 PM,10.0,3.0,73,29.92,6.0,WNW,16.1,31.1,0.00,,Haze,290,2013-02-19 21:53:00
4:53 PM,9.0,1.0,70,29.95,10.0,WNW,21.9,32.2,N/A,,Overcast,290,2013-02-19 22:53:00
6:53 PM,9.0,-0.9,64,30.02,10.0,WNW,18.4,-,N/A,,Mostly Cloudy,290,2013-02-20 00:53:00
7:53 PM,9.0,-0.9,64,30.06,10.0,WNW,20.7,29.9,N/A,,Clear,300,2013-02-20 01:53:00
8:53 PM,9.0,-0.0,67,30.09,10.0,WNW,13.8,-,N/A,,Clear,300,2013-02-20 02:53:00
9:53 PM,8.1,-0.9,67,30.11,10.0,WNW,11.5,19.6,N/A,,Clear,300,2013-02-20 03:53:00
10:53 PM,8.1,-0.9,67,30.12,10.0,NW,15.0,25.3,N/A,,Clear,310,2013-02-20 04:53:00
11:53 PM,8.1,-0.9,67,30.13,10.0,WNW,16.1,20.7,N/A,,Clear,300,2013-02-20 05:53:00